Regional Weather Roundup
Issued by NWS

Home | Current Version | Previous Version | Graphics & Text | Print | Product List | Glossary On
Versions: 1 2 3 4 5 6 7 8 9 10 11 12 13 14 15 16 17 18 19 20 21 22 23 24 25 26 27 28 29 30 31 32 33 34 35 36 37 38 39 40 41 42 43 44 45 46 47 48 49 50
000
ASUS45 KBOI 262110
RWRID
WEATHER ROUNDUP FOR IDAHO
NATIONAL WEATHER SERVICE BOISE ID
200 PM MST THU FEB 26 2015

NOTE: "FAIR" INDICATES FEW OR NO CLOUDS BELOW 12000 FEET
WITH NO SIGNIFICANT WEATHER AND/OR OBSTRUCTIONS TO VISIBILITY

IDZ012-014-262200-
SOUTHWEST IDAHO


CITY           SKY/WX    TMP DP  RH WIND       PRES   REMARKS
BOISE          PTSUNNY   49  32  52 NW14      30.00F
CALDWELL       CLOUDY    48  30  49 NW14      30.03F
MOUNTAIN HOME  PTSUNNY   46  30  53 NW15      29.99F
$$

IDZ016-017-262200-
SOUTHCENTRAL IDAHO


CITY           SKY/WX    TMP DP  RH WIND       PRES   REMARKS
BURLEY         CLOUDY    42  18  37 VRB5      29.96F
JEROME         CLOUDY    39  28  64 S7        29.99F WCI  34
TWIN FALLS     CLOUDY    39  29  67 S7        29.99F WCI  34
$$

IDZ019>023-262200-
SOUTHEAST IDAHO


CITY           SKY/WX    TMP DP  RH WIND       PRES   REMARKS
IDAHO FALLS    MOSUNNY   39   8  27 W3        29.95F
POCATELLO      MOSUNNY   42  13  30 N9        29.95F
REXBURG        MOSUNNY   38   7  27 NE6       29.94F WCI  33
$$

IDZ006-010-011-018-031-032-262200-
CENTRAL IDAHO MOUNTAINS


CITY           SKY/WX    TMP DP  RH WIND       PRES   REMARKS
MCCALL         CLOUDY    35  27  72 W10       29.95F WCI  27
HAILEY         CLOUDY    37  27  65 SW12      29.94F WCI  30
STANLEY          N/A     37  17  44 NW5       29.91F WCI  33
SALMON         PTSUNNY   36  19  51 SW5       29.98F WCI  32
CHALLIS        CLOUDY    40  20  44 CALM      29.93F
$$

IDZ002-004-006-007-026-262200-
NORTHERN IDAHO


CITY           SKY/WX    TMP DP  RH WIND       PRES   REMARKS
LEWISTON       CLOUDY    45  40  82 CALM      30.08F
LOWELL           N/A     48  29  47 S7        30.06F
COEUR D`ALENE  FAIR      45  28  53 NE7       30.05F
MULLAN PASS    CLOUDY    29  17  61 CALM      29.96F
$$


USA.gov is the U.S. government's official web portal to all federal, state and local government web resources and services.